Location: Newark
(29.9790°N, 31.1340°E)
Time: 23:18:42
(UTC+00:00)

A-11 Canister half - Pass Details

Date: 03 February 2020
Orbit: 1524 x 1684 km, 47.3° (Epoch: 19 February)

Event Time Altitude Azimuth Distance (km) Brightness Sun altitude
Rises 17:15:15 0° 306° (NW) 4,692 12.3 -22.2°
Reaches altitude 10° 17:18:45 10° 316° (NW) 3,724 11.5 -23.0°
Maximum altitude 17:27:02 33° 18° (NNE) 2,409 9.8 -24.7°
Enters shadow 17:29:21 30° 43° (NE) 2,553 9.7 -25.2°
